Regional Weather Roundup
Issued by NWS

Home | Current Version | Previous Version | Text Only | Print | Product List | Glossary On
Versions: 1 2 3 4 5 6 7 8 9 10 11 12 13 14 15 16 17 18 19 20 21 22 23 24 25 26 27 28 29 30 31 32 33 34 35 36 37 38 39 40 41 42 43 44 45 46 47 48 49 50
542
ASUS45 KABQ 081510
RWRNM
NEW MEXICO REGIONAL WEATHER ROUNDUP
NATIONAL WEATHER SERVICE ALBUQUERQUE NM
800 AM MST MON FEB 08 2016

NOTE: "FAIR" MEANS FEW OR NO CLOUDS BELOW 12,000 FEET AGL WITH NO
       SIGNIFICANT WEATHER OR OBSTRUCTIONS TO VISION.

      THIS PRODUCT IS RELEASED AS TWO VERSIONS.  ONE VERSION NEAR
      THE TOP OF THE HOUR CONTAINING PRELIMINARY DATA FROM ALBUQUERQUE
      AND OTHER STATIONS.  A FINAL VERSION WITH ADDITIONAL DATA IS
      ISSUED ABOUT 10 MINUTES AFTER THE HOUR.

NMZ501-503-504-510>518-081600-
NORTHWEST PLATEAU/NORTHCENTRAL MOUNTAINS

CITY           SKY/WX    TMP DP  RH WIND       PRES   REMARKS
FARMINGTON     CLOUDY    22  16  78 E5        30.51R WCI  16
LOS ALAMOS     CLOUDY    31  16  54 N5        30.45S WCI  26
SANTA FE       CLOUDY    26  18  71 N22       30.42R WCI  12
TAOS           CLOUDY    18  12  79 CALM      30.48F
ANGEL FIRE     FAIR       2  -3  81 E5        30.45F WCI  -8

$$
NMZ402-403-502-505>509-081600-
WESTCENTRAL MOUNTAINS/SOUTHWEST MOUNTAINS

CITY           SKY/WX    TMP DP  RH WIND       PRES   REMARKS
GALLUP         CLEAR     19  16  88 E3        30.51S
GRANTS         CLEAR     20  15  81 NW9       30.51S WCI   9
SILVER CITY      N/A     34  21  60 N7        30.42R WCI  28

$$
NMZ407-409-411-412-081600-
SOUTHERN DESERTS

CITY           SKY/WX    TMP DP  RH WIND       PRES   REMARKS
LORDSBURG      FAIR      30  19  64 CALM      30.40R
DEMING         SUNNY     38  18  44 E13       30.41R WCI  30
LAS CRUCES     SUNNY     34  18  52 SW5       30.42S WCI  29
HOLLOMAN AFB   CLOUDY    35  16  47 S10       30.43R WCI  27
ALAMOGORDO     SUNNY     36  18  48 SE8       30.45R WCI  29
T OR C         SUNNY     37  17  44 N5        30.44R WCI  33

$$
NMZ519>523-081600-
CENTRAL VALLEYS/CENTRAL HIGHLANDS

CITY           SKY/WX    TMP DP  RH WIND       PRES   REMARKS
ALBUQUERQUE    CLOUDY    31  19  61 NW8       30.46R WCI  23
DOUBLE EAGLE   SUNNY     25  18  74 CALM      30.45S
MORIARTY ARPT  FAIR      22  18  85 N7        30.47R WCI  14
CLINES CORNERS CLOUDY    27  19  72 VRB6      30.40R WCI  20
BELEN          FAIR      29  17  59 N6        30.47R WCI  23
SOCORRO        FAIR      31  17  55 N12G17    30.45R WCI  22

$$
NMZ524>526-539-540-081600-
SOUTHCENTRAL MOUNTAINS

CITY           SKY/WX    TMP DP  RH WIND       PRES   REMARKS
RUIDOSO          N/A     25  16  68 CALM      30.45R

$$
NMZ527>531-081600-
NORTHEAST HIGHLANDS/NORTHEAST PLAINS

CITY           SKY/WX    TMP DP  RH WIND       PRES   REMARKS
LAS VEGAS      CLOUDY    21  17  84 SW3       30.39R
RATON          CLOUDY    18  14  84 NE7       30.39S WCI   9
CLAYTON        CLOUDY    28  18  66 W5        30.42R WCI  23

$$
NMZ532>537-081600-
EASTCENTRAL PLAINS

CITY           SKY/WX    TMP DP  RH WIND       PRES   REMARKS
TUCUMCARI      CLOUDY    27  18  69 W8        30.47S WCI  19
CANNON AFB     CLOUDY    28  14  55 NW9       30.46R WCI  19
CLOVIS AIRPORT CLOUDY    28  14  54 NW9       30.47S WCI  20

$$
NMZ028-029-538-081600-
SOUTHEAST PLAINS

CITY           SKY/WX    TMP DP  RH WIND       PRES   REMARKS
ROSWELL        CLOUDY    29  16  58 W7        30.52R WCI  22
ARTESIA        CLOUDY    32  18  55 CALM      30.55R
CARLSBAD       CLOUDY    33  20  58 W5        30.54R WCI  29
HOBBS          SUNNY     32  14  47 NW9       30.53R WCI  24


$$




USA.gov is the U.S. government's official web portal to all federal, state and local government web resources and services.